Location: Unspecified
(0.0000°N, 0.0000°E)
Time: 13:26:27
(UTC+00:00)

ISS - Pass Details

Date: 12 April 2021
Orbit: 418 x 422 km, 51.6° (Epoch: 16 April)

Event Time Altitude Azimuth Distance (km) Brightness Sun altitude
Rises 19:47:25 0° 294° (WNW) 2,348 1.3 -26.3°
Reaches altitude 10° 19:50:15 10° 268° (W) 1,487 0.0 -27.0°
Maximum altitude 19:52:07 14° 234° (SW) 1,262 -0.9 -27.5°
Enters shadow 19:52:10 14° 233° (SW) 1,262 -0.9 -27.5°
